singapore: the smallest big galery
home » forum » Mods

You are not logged in.

Mods

Topic Replies Views Last post
0 2055 2017-02-28 15:00:40 by linrx
wordpress template by gingster
8 23042 2013-07-09 13:04:18 by SPOT LIGHTSA
8 13583 2013-06-10 13:13:10 by political
imagemap_navigation = off by snapfamous
2 6192 2013-06-04 04:57:25 by 5Linx a
paypal integration by bwaje
7 16214 2013-05-01 13:30:28 by Mlm
pagination by eddiejanzer
3 9983 2013-04-17 06:43:04 by Rocky90241
Exif howto by bluemoon
13 29366 2013-01-30 09:37:52 by tentionfree
Moving images via admin by forty two  [ 1 2 3 ]
39 87152 2013-01-21 07:48:47 by amusalin
Full Size Image Popup by quicksketch
14 44203 2013-01-17 08:59:30 by forger
0 3656 2012-12-06 06:18:01 by Mattiy
1 6314 2011-12-01 06:42:20 by dick123
facebook like button? by steliosk
4 9208 2011-08-25 21:28:10 by PrimaFoto
2 6347 2011-08-22 20:50:53 by focale31
1 5200 2011-07-05 07:20:25 by mikeatx
2 7090 2011-06-27 19:47:31 by DC
7 17069 2011-06-22 18:04:53 by pcphotos
9 31656 2011-03-27 17:18:14 by DC
14 33636 2010-01-21 15:48:06 by phyllis01
1 6386 2010-01-20 01:56:41 by DC
upload multiple files by eddiejanzer
9 21237 2009-05-18 17:58:31 by PrimaFoto
0 5874 2009-05-13 05:28:55 by DC
8 25933 2008-11-03 04:22:36 by DC
Posting comments by VSingh
1 7006 2008-10-26 22:02:55 by DC
1 7588 2008-09-12 11:54:11 by crash01
4 12342 2008-07-16 22:38:21 by DC
singapore and wordpress by eddiejanzer
3 10560 2008-03-27 13:13:52 by pavian
31 72578 2008-02-04 06:25:25 by bhchen
12 27141 2008-01-21 08:18:10 by crespowu
3 8437 2008-01-11 16:30:58 by DC
0 4640 2007-12-04 03:48:14 by samrohn